Location: Beddau
(51.5575°N, 3.3561°W)
Time: 12:06:35
(UTC+00:00)

Meteor 2-4 Rocket - Pass Details

Date: 03 March 2021
Orbit: 799 x 908 km, 81.2° (Epoch: 11 April)

Event Time Altitude Azimuth Distance (km) Brightness Sun altitude
Rises 18:43:59 0° 349° (N) 3,479 7.0 -8.0°
Reaches altitude 10° 18:46:30 10° 355° (N) 2,551 6.3 -8.4°
Maximum altitude 18:52:11 52° 71° (ENE) 1,103 4.0 -9.3°
Drops below altitude 10° 18:57:56 10° 148° (SSE) 2,582 5.9 -10.2°
Sets 19:00:29 0° 153° (SSE) 3,524 6.6 -10.6°
